Content
SEND FEEDBACK

United States of America Flag

FAYETTEVILLE, TENNESSEE


Home > North America > United States > Tennessee
Elevation: 700 feet     Latitude: 35 10N     Longitude: 086 33W

WEATHER
 
SELECT A DAY
Number of Records: 340,776;   Date Range: 4/22/02 - 3/22/16
 
SHARE

PRINT THIS DATA

[ ← Previous Day ]
WEATHER ALMANAC - OCTOBER 28, 2013
[ Next Day → ]
[ °C ]   °F
Weather ElementAverageHighLow
Temperature58 °F68 °F (2:35 pm)51.8 °F (9:55 pm)
Dewpoint51.1 °F53.6 °F (9:35 am)46.4 °F (12:55 am)
Humidity78.9 %100 % (10:55 pm)52 % (2:35 pm)
Barometer30.20 in30.27 in (10:55 pm)30.12 in (12:35 am)
Wind Speed1.2 mph5.8 mph (10:35 am)
Weather ElementAverage
Visibility9.2 mi
Wind DirectionENE (55.9 °)

Weather ElementTotal
Precipitation0.01 in
Heating Degree Days5.1 (Base 65)
Growing Degree Days9.9 (Base 50)
Averaged from 71 records on October 28, 2013
WEATHER CONDITIONS BREAKOUT
WIND DIRECTION BREAKOUT
WEATHER BY HOUR - OCTOBER 28, 2013
[ °C ]   °F
Local TimeTemperatureDewpointHumidityBarometerVisibilityWind DirectionWind SpeedGust SpeedPrecipitationEventsConditions
12:35 AM57.2 °F48.2 °F72 %30.12 in10.0 miSSE (150°)3.5 mphClear
12:55 AM57.2 °F46.4 °F67 %30.12 in10.0 miSE (140°)3.5 mphScattered Clouds
1:15 AM57.2 °F46.4 °F67 %30.12 in10.0 miCalmScattered Clouds
1:35 AM53.6 °F48.2 °F82 %30.12 in10.0 miCalmScattered Clouds
1:55 AM55.4 °F48.2 °F77 %30.13 in10.0 miCalmScattered Clouds
2:15 AM55.4 °F48.2 °F77 %30.13 in10.0 miCalmScattered Clouds
2:35 AM55.4 °F48.2 °F77 %30.13 in10.0 miCalmClear
2:55 AM55.4 °F50.0 °F82 %30.13 in10.0 miCalmClear
3:15 AM55.4 °F50.0 °F82 %30.13 in10.0 miCalmScattered Clouds
3:35 AM53.6 °F50.0 °F88 %30.13 in10.0 miCalmRainLight Rain
3:55 AM53.6 °F50.0 °F88 %30.13 in10.0 miCalmRainLight Rain
4:15 AM53.6 °F50.0 °F88 %30.13 in10.0 miCalmScattered Clouds
4:35 AM53.6 °F50.0 °F88 %30.14 in10.0 miCalmScattered Clouds
4:55 AM53.6 °F50.0 °F88 %30.14 in10.0 miSouth (190°)3.5 mphScattered Clouds
5:15 AM53.6 °F50.0 °F88 %30.14 in10.0 miCalmMostly Cloudy
5:35 AM53.6 °F50.0 °F88 %30.15 in10.0 miCalmOvercast
5:55 AM55.4 °F50.0 °F82 %30.15 in10.0 miCalmOvercast
6:15 AM55.4 °F50.0 °F82 %30.16 in10.0 miCalmOvercast
6:35 AM55.4 °F50.0 °F82 %30.16 in10.0 miSE (140°)4.6 mphOvercast
6:55 AM55.4 °F50.0 °F82 %30.17 in10.0 miSE (140°)3.5 mphOvercast
7:15 AM55.4 °F50.0 °F82 %30.18 in10.0 miCalmRainLight Rain
7:35 AM55.4 °F50.0 °F82 %30.19 in7.0 miCalmRainHeavy Rain
7:55 AM55.4 °F51.8 °F88 %30.19 in5.0 miSSE (160°)3.5 mph0.01 inRainLight Rain
8:15 AM55.4 °F51.8 °F88 %30.20 in5.0 miSE (140°)3.5 mphRainLight Rain
8:35 AM55.4 °F51.8 °F88 %30.21 in5.0 miSE (140°)3.5 mphDrizzle
8:55 AM55.4 °F51.8 °F88 %30.23 in10.0 miEast (100°)3.5 mphMostly Cloudy
9:15 AM55.4 °F51.8 °F88 %30.23 in7.0 miSSE (150°)4.6 mphMostly Cloudy
9:35 AM55.4 °F53.6 °F94 %30.24 in10.0 miSSE (160°)4.6 mphOvercast
9:55 AM57.2 °F53.6 °F88 %30.24 in10.0 miSouth (180°)4.6 mphOvercast
10:15 AM59.0 °F53.6 °F82 %30.24 in10.0 miSSE (160°)4.6 mphOvercast
10:35 AM59.0 °F53.6 °F82 %30.25 in10.0 miSSW (200°)5.8 mphOvercast
10:55 AM59.0 °F53.6 °F82 %30.25 in10.0 miSSW (200°)4.6 mphOvercast
11:15 AM59.0 °F53.6 °F82 %30.25 in10.0 miSSW (210°)3.5 mphOvercast
11:35 AM59.0 °F53.6 °F82 %30.24 in10.0 miCalmOvercast
11:55 AM60.8 °F53.6 °F77 %30.24 in10.0 miSW (220°)4.6 mphOvercast
12:15 PM60.8 °F51.8 °F72 %30.24 in10.0 miSouth (170°)3.5 mphOvercast
12:35 PM60.8 °F51.8 °F72 %30.23 in10.0 miCalmOvercast
12:55 PM62.6 °F51.8 °F68 %30.22 in10.0 miCalmMostly Cloudy
1:15 PM64.4 °F51.8 °F64 %30.20 in10.0 miCalmMostly Cloudy
1:35 PM62.6 °F51.8 °F68 %30.19 in10.0 miSSE (160°)3.5 mphMostly Cloudy
1:55 PM62.6 °F51.8 °F68 %30.19 in10.0 miWest (270°)3.5 mphOvercast
2:15 PM64.4 °F51.8 °F64 %30.19 in10.0 miCalmOvercast
2:35 PM68.0 °F50.0 °F52 %30.19 in10.0 miCalmMostly Cloudy
2:55 PM66.2 °F48.2 °F52 %30.19 in10.0 miWest (280°)4.6 mphMostly Cloudy
3:15 PM66.2 °F50.0 °F56 %30.19 in10.0 miNW (310°)3.5 mphMostly Cloudy
3:35 PM66.2 °F48.2 °F52 %30.19 in10.0 miCalmScattered Clouds
3:55 PM66.2 °F50.0 °F56 %30.20 in10.0 miCalmMostly Cloudy
4:15 PM64.4 °F50.0 °F59 %30.20 in10.0 miCalmOvercast
4:35 PM64.4 °F50.0 °F59 %30.20 in10.0 miCalmOvercast
4:55 PM62.6 °F51.8 °F68 %30.21 in10.0 miCalmOvercast
5:15 PM62.6 °F53.6 °F72 %30.21 in10.0 miCalmOvercast
5:35 PM62.6 °F51.8 °F68 %30.22 in10.0 miCalmOvercast
5:55 PM62.6 °F51.8 °F68 %30.22 in10.0 miCalmOvercast
6:15 PM62.6 °F53.6 °F72 %30.22 in10.0 miCalmOvercast
6:35 PM62.6 °F53.6 °F72 %30.23 in10.0 miCalmOvercast
6:55 PM60.8 °F53.6 °F77 %30.24 in10.0 miCalmMostly Cloudy
7:15 PM60.8 °F53.6 °F77 %30.24 in10.0 miCalmMostly Cloudy
7:35 PM59.0 °F53.6 °F82 %30.25 in10.0 miCalmScattered Clouds
7:55 PM57.2 °F51.8 °F82 %30.25 in10.0 miCalmMostly Cloudy
8:15 PM57.2 °F51.8 °F82 %30.25 in10.0 miCalmOvercast
8:35 PM55.4 °F51.8 °F88 %30.25 in7.0 miCalmMostly Cloudy
8:55 PM55.4 °F51.8 °F88 %30.25 in7.0 miCalmMostly Cloudy
9:15 PM53.6 °F51.8 °F94 %30.25 in7.0 miCalmScattered Clouds
9:35 PM53.6 °F50.0 °F88 %30.26 in7.0 miCalmClear
9:55 PM51.8 °F50.0 °F94 %30.26 in5.0 miCalmScattered Clouds
10:15 PM53.6 °F51.8 °F94 %30.26 in7.0 miCalmOvercast
10:35 PM53.6 °F51.8 °F94 %30.26 in7.0 miCalmOvercast
10:55 PM53.6 °F53.6 °F100 %30.27 in10.0 miCalmOvercast
11:15 PM53.6 °F51.8 °F94 %30.26 in7.0 miCalmOvercast
11:35 PM53.6 °F51.8 °F94 %30.26 in5.0 miCalmMostly Cloudy
11:55 PM51.8 °F50.0 °F94 %30.26 in4.0 miCalmMostly Cloudy
Hourly data recorded from KMDQ, located miles away from Fayetteville, Tennessee




STORIES FROM OUR PARTNERS